Year,Month,Day,Hour,Minute,Value (Times are PST for temperature in C)
2014,07,10,00,00,17.60
2014,07,10,00,01,17.50
2014,07,10,00,02,17.50
2014,07,10,00,03,17.50
2014,07,10,00,04,17.50
2014,07,10,00,05,17.40
2014,07,10,00,06,17.40
2014,07,10,00,07,17.40
2014,07,10,00,08,17.40
2014,07,10,00,09,17.40
2014,07,10,00,10,17.40
2014,07,10,00,11,17.40
2014,07,10,00,12,17.40
2014,07,10,00,13,17.40
2014,07,10,00,14,17.40
2014,07,10,00,15,17.30
2014,07,10,00,16,17.30
2014,07,10,00,17,17.30
2014,07,10,00,18,17.30
2014,07,10,00,19,17.30
2014,07,10,00,20,17.30
2014,07,10,00,21,17.30
2014,07,10,00,22,17.30
2014,07,10,00,23,17.30
2014,07,10,00,24,17.30
2014,07,10,00,25,17.30
2014,07,10,00,26,17.20
2014,07,10,00,27,17.20
2014,07,10,00,28,17.20
2014,07,10,00,29,17.20
2014,07,10,00,30,17.20
2014,07,10,00,31,17.20
2014,07,10,00,32,17.20
2014,07,10,00,33,17.20
2014,07,10,00,34,17.10
2014,07,10,00,35,17.10
2014,07,10,00,36,17.10
2014,07,10,00,37,17.10
2014,07,10,00,38,17.10
2014,07,10,00,39,17.10
2014,07,10,00,40,17.10
2014,07,10,00,41,17.00
2014,07,10,00,42,17.00
2014,07,10,00,43,17.00
2014,07,10,00,44,17.00
2014,07,10,00,45,17.00
2014,07,10,00,46,16.90
2014,07,10,00,47,16.90
2014,07,10,00,48,16.90
2014,07,10,00,49,16.90
2014,07,10,00,50,16.90
2014,07,10,00,51,16.90
2014,07,10,00,52,16.90
2014,07,10,00,53,16.90
2014,07,10,00,54,16.90
2014,07,10,00,55,16.90
2014,07,10,00,56,16.80
2014,07,10,00,57,16.80
2014,07,10,00,58,16.80
2014,07,10,00,59,16.80
2014,07,10,01,00,16.80
2014,07,10,01,01,16.80
2014,07,10,01,02,16.80
2014,07,10,01,03,16.80
2014,07,10,01,04,16.80
2014,07,10,01,05,16.70
2014,07,10,01,06,16.70
2014,07,10,01,07,16.70
2014,07,10,01,08,16.60
2014,07,10,01,09,16.60
2014,07,10,01,10,16.60
2014,07,10,01,11,16.60
2014,07,10,01,12,16.50
2014,07,10,01,13,16.50
2014,07,10,01,14,16.50
2014,07,10,01,15,16.50
2014,07,10,01,16,16.50
2014,07,10,01,17,16.50
2014,07,10,01,18,16.50
2014,07,10,01,19,16.40
2014,07,10,01,20,16.50
2014,07,10,01,21,16.50
2014,07,10,01,22,16.50
2014,07,10,01,23,16.50
2014,07,10,01,24,16.40
2014,07,10,01,25,16.40
2014,07,10,01,26,16.40
2014,07,10,01,27,16.40
2014,07,10,01,28,16.40
2014,07,10,01,29,16.40
2014,07,10,01,30,16.40
2014,07,10,01,31,16.40
2014,07,10,01,32,16.40
2014,07,10,01,33,16.40
2014,07,10,01,34,16.30
2014,07,10,01,35,16.30
2014,07,10,01,36,16.30
2014,07,10,01,37,16.30
2014,07,10,01,38,16.30
2014,07,10,01,39,16.30
2014,07,10,01,40,16.30
2014,07,10,01,41,16.30
2014,07,10,01,42,16.30
2014,07,10,01,43,16.30
2014,07,10,01,44,16.20
2014,07,10,01,45,16.20
2014,07,10,01,46,16.20
2014,07,10,01,47,16.20
2014,07,10,01,48,16.20
2014,07,10,01,49,16.20
2014,07,10,01,50,16.10
2014,07,10,01,51,16.10
2014,07,10,01,52,16.10
2014,07,10,01,53,16.10
2014,07,10,01,54,16.10
2014,07,10,01,55,16.00
2014,07,10,01,56,16.00
2014,07,10,01,57,16.00
2014,07,10,01,58,15.90
2014,07,10,01,59,15.90
2014,07,10,02,00,15.90
2014,07,10,02,01,15.90
2014,07,10,02,02,15.80
2014,07,10,02,03,15.80
2014,07,10,02,04,15.80
2014,07,10,02,05,15.80
2014,07,10,02,06,15.80
2014,07,10,02,07,15.70
2014,07,10,02,08,15.80
2014,07,10,02,09,15.80
2014,07,10,02,10,15.80
2014,07,10,02,11,15.80
2014,07,10,02,12,15.80
2014,07,10,02,13,15.80
2014,07,10,02,14,15.80
2014,07,10,02,15,15.80
2014,07,10,02,16,15.80
2014,07,10,02,17,15.80
2014,07,10,02,18,15.80
2014,07,10,02,19,15.80
2014,07,10,02,20,15.80
2014,07,10,02,21,15.80
2014,07,10,02,22,15.80
2014,07,10,02,23,15.80
2014,07,10,02,24,15.80
2014,07,10,02,25,15.70
2014,07,10,02,26,15.70
2014,07,10,02,27,15.70
2014,07,10,02,28,15.70
2014,07,10,02,29,15.80
2014,07,10,02,30,15.70
2014,07,10,02,31,15.80
2014,07,10,02,32,15.80
2014,07,10,02,33,15.80
2014,07,10,02,34,15.80
2014,07,10,02,35,15.70
2014,07,10,02,36,15.70
2014,07,10,02,37,15.70
2014,07,10,02,38,15.70
2014,07,10,02,39,15.70
2014,07,10,02,40,15.70
2014,07,10,02,41,15.70
2014,07,10,02,42,15.80
2014,07,10,02,43,15.80
2014,07,10,02,44,15.80
2014,07,10,02,45,15.80
2014,07,10,02,46,15.80
2014,07,10,02,47,15.80
2014,07,10,02,48,15.80
2014,07,10,02,49,15.80
2014,07,10,02,50,15.70
2014,07,10,02,51,15.70
2014,07,10,02,52,15.70
2014,07,10,02,53,15.70
2014,07,10,02,54,15.70
2014,07,10,02,55,15.70
2014,07,10,02,56,15.60
2014,07,10,02,57,15.60
2014,07,10,02,58,15.60
2014,07,10,02,59,15.60
2014,07,10,03,00,15.60
2014,07,10,03,01,15.50
2014,07,10,03,02,15.50
2014,07,10,03,03,15.50
2014,07,10,03,04,15.40
2014,07,10,03,05,15.40
2014,07,10,03,06,15.30
2014,07,10,03,07,15.30
2014,07,10,03,08,15.20
2014,07,10,03,09,15.20
2014,07,10,03,10,15.10
2014,07,10,03,11,15.10
2014,07,10,03,12,15.00
2014,07,10,03,13,14.90
2014,07,10,03,14,14.90
2014,07,10,03,15,14.90
2014,07,10,03,16,14.80
2014,07,10,03,17,14.80
2014,07,10,03,18,14.80
2014,07,10,03,19,14.70
2014,07,10,03,20,14.70
2014,07,10,03,21,14.70
2014,07,10,03,22,14.70
2014,07,10,03,23,14.60
2014,07,10,03,24,14.60
2014,07,10,03,25,14.60
2014,07,10,03,26,14.60
2014,07,10,03,27,14.60
2014,07,10,03,28,14.60
2014,07,10,03,29,14.60
2014,07,10,03,30,14.60
2014,07,10,03,31,14.60
2014,07,10,03,32,14.60
2014,07,10,03,33,14.60
2014,07,10,03,34,14.60
2014,07,10,03,35,14.60
2014,07,10,03,36,14.60
2014,07,10,03,37,14.60
2014,07,10,03,38,14.60
2014,07,10,03,39,14.60
2014,07,10,03,40,14.50
2014,07,10,03,41,14.50
2014,07,10,03,42,14.40
2014,07,10,03,43,14.40
2014,07,10,03,44,14.40
2014,07,10,03,45,14.30
2014,07,10,03,46,14.30
2014,07,10,03,47,14.30
2014,07,10,03,48,14.30
2014,07,10,03,49,14.30
2014,07,10,03,50,14.30
2014,07,10,03,51,14.30
2014,07,10,03,52,14.20
2014,07,10,03,53,14.20
2014,07,10,03,54,14.20
2014,07,10,03,55,14.20
2014,07,10,03,56,14.20
2014,07,10,03,57,14.20
2014,07,10,03,58,14.20
2014,07,10,03,59,14.30
2014,07,10,04,00,14.30
2014,07,10,04,01,14.30
2014,07,10,04,02,14.30
2014,07,10,04,03,14.30
2014,07,10,04,04,14.30
2014,07,10,04,05,14.30
2014,07,10,04,06,14.30
2014,07,10,04,07,14.30
2014,07,10,04,08,14.30
2014,07,10,04,09,14.30
2014,07,10,04,10,14.40
2014,07,10,04,11,14.40
2014,07,10,04,12,14.40
2014,07,10,04,13,14.40
2014,07,10,04,14,14.40
2014,07,10,04,15,14.40
2014,07,10,04,16,14.40
2014,07,10,04,17,14.40
2014,07,10,04,18,14.50
2014,07,10,04,19,14.50
2014,07,10,04,20,14.50
2014,07,10,04,21,14.50
2014,07,10,04,22,14.50
2014,07,10,04,23,14.50
2014,07,10,04,24,14.60
2014,07,10,04,25,14.60
2014,07,10,04,26,14.50
2014,07,10,04,27,14.60
2014,07,10,04,28,14.60
2014,07,10,04,29,14.60
2014,07,10,04,30,14.60
2014,07,10,04,31,14.60
2014,07,10,04,32,14.60
2014,07,10,04,33,14.60
2014,07,10,04,34,14.60
2014,07,10,04,35,14.60
2014,07,10,04,36,14.60
2014,07,10,04,37,14.60
2014,07,10,04,38,14.60
2014,07,10,04,39,14.50
2014,07,10,04,40,14.50
2014,07,10,04,41,14.50
2014,07,10,04,42,14.50
2014,07,10,04,43,14.50
2014,07,10,04,44,14.60
2014,07,10,04,45,14.60
2014,07,10,04,46,14.60
2014,07,10,04,47,14.60
2014,07,10,04,48,14.60
2014,07,10,04,49,14.50
2014,07,10,04,50,14.50
2014,07,10,04,51,14.50
2014,07,10,04,52,14.50
2014,07,10,04,53,14.40
2014,07,10,04,54,14.40
2014,07,10,04,55,14.40
2014,07,10,04,56,14.40
2014,07,10,04,57,14.40
2014,07,10,04,58,14.40
2014,07,10,04,59,14.30
2014,07,10,05,00,14.30
2014,07,10,05,01,14.30
2014,07,10,05,02,14.30
2014,07,10,05,03,14.30
2014,07,10,05,04,14.30
2014,07,10,05,05,14.30
2014,07,10,05,06,14.30
2014,07,10,05,07,14.20
2014,07,10,05,08,14.20
2014,07,10,05,09,14.20
2014,07,10,05,10,14.20
2014,07,10,05,11,14.20
2014,07,10,05,12,14.20
2014,07,10,05,13,14.10
2014,07,10,05,14,14.10
2014,07,10,05,15,14.10
2014,07,10,05,16,14.10
2014,07,10,05,17,14.10
2014,07,10,05,18,14.00
2014,07,10,05,19,14.00
2014,07,10,05,20,14.00
2014,07,10,05,21,13.90
2014,07,10,05,22,13.90
2014,07,10,05,23,13.90
2014,07,10,05,24,13.90
2014,07,10,05,25,13.90
2014,07,10,05,26,13.90
2014,07,10,05,27,13.90
2014,07,10,05,28,13.90
2014,07,10,05,29,13.90
2014,07,10,05,30,13.90
2014,07,10,05,31,13.90
2014,07,10,05,32,13.90
2014,07,10,05,33,13.90
2014,07,10,05,34,13.90
2014,07,10,05,35,13.90
2014,07,10,05,36,13.90
2014,07,10,05,37,13.80
2014,07,10,05,38,13.80
2014,07,10,05,39,13.80
2014,07,10,05,40,13.80
2014,07,10,05,41,13.80
2014,07,10,05,42,13.80
2014,07,10,05,43,13.80
2014,07,10,05,44,13.80
2014,07,10,05,45,13.80
2014,07,10,05,46,13.80
2014,07,10,05,47,13.80
2014,07,10,05,48,13.80
2014,07,10,05,49,13.80
2014,07,10,05,50,13.80
2014,07,10,05,51,13.80
2014,07,10,05,52,13.80
2014,07,10,05,53,13.80
2014,07,10,05,54,13.80
2014,07,10,05,55,13.80
2014,07,10,05,56,13.80
2014,07,10,05,57,13.80
2014,07,10,05,58,13.80
2014,07,10,05,59,13.80
2014,07,10,06,00,13.70
2014,07,10,06,01,13.70
2014,07,10,06,02,13.70
2014,07,10,06,03,13.70
2014,07,10,06,04,13.70
2014,07,10,06,05,13.70
2014,07,10,06,06,13.70
2014,07,10,06,07,13.70
2014,07,10,06,08,13.70
2014,07,10,06,09,13.70
2014,07,10,06,10,13.70
2014,07,10,06,11,13.70
2014,07,10,06,12,13.70
2014,07,10,06,13,13.70
2014,07,10,06,14,13.70
2014,07,10,06,15,13.70
2014,07,10,06,16,13.70
2014,07,10,06,17,13.80
2014,07,10,06,18,13.80
2014,07,10,06,19,13.80
2014,07,10,06,20,13.80
2014,07,10,06,21,13.80
2014,07,10,06,22,13.80
2014,07,10,06,23,13.90
2014,07,10,06,24,13.90
2014,07,10,06,25,14.00
2014,07,10,06,26,14.00
2014,07,10,06,27,14.10
2014,07,10,06,28,14.10
2014,07,10,06,29,14.20
2014,07,10,06,30,14.20
2014,07,10,06,31,14.20
2014,07,10,06,32,14.20
2014,07,10,06,33,14.30
2014,07,10,06,34,14.30
2014,07,10,06,35,14.30
2014,07,10,06,36,14.30
2014,07,10,06,37,14.40
2014,07,10,06,38,14.40
2014,07,10,06,39,14.40
2014,07,10,06,40,14.40
2014,07,10,06,41,14.40
2014,07,10,06,42,14.50
2014,07,10,06,43,14.50
2014,07,10,06,44,14.50
2014,07,10,06,45,14.60
2014,07,10,06,46,14.60
2014,07,10,06,47,14.60
2014,07,10,06,48,14.60
2014,07,10,06,49,14.70
2014,07,10,06,50,14.70
2014,07,10,06,51,14.70
2014,07,10,06,52,14.70
2014,07,10,06,53,14.80
2014,07,10,06,54,14.80
2014,07,10,06,55,14.80
2014,07,10,06,56,14.80
2014,07,10,06,57,14.80
2014,07,10,06,58,14.90
2014,07,10,06,59,14.90
2014,07,10,07,00,14.90
2014,07,10,07,01,14.90
2014,07,10,07,02,15.00
2014,07,10,07,03,15.00
2014,07,10,07,04,15.00
2014,07,10,07,05,15.10
2014,07,10,07,06,15.10
2014,07,10,07,07,15.10
2014,07,10,07,08,15.20
2014,07,10,07,09,15.20
2014,07,10,07,10,15.20
2014,07,10,07,11,15.30
2014,07,10,07,12,15.30
2014,07,10,07,13,15.30
2014,07,10,07,14,15.40
2014,07,10,07,15,15.40
2014,07,10,07,16,15.40
2014,07,10,07,17,15.50
2014,07,10,07,18,15.50
2014,07,10,07,19,15.50
2014,07,10,07,20,15.50
2014,07,10,07,21,15.60
2014,07,10,07,22,15.60
2014,07,10,07,23,15.60
2014,07,10,07,24,15.60
2014,07,10,07,25,15.60
2014,07,10,07,26,15.70
2014,07,10,07,27,15.70
2014,07,10,07,28,15.70
2014,07,10,07,29,15.70
2014,07,10,07,30,15.80
2014,07,10,07,31,15.80
2014,07,10,07,32,15.80
2014,07,10,07,33,15.80
2014,07,10,07,34,15.80
2014,07,10,07,35,15.80
2014,07,10,07,36,15.90
2014,07,10,07,37,15.90
2014,07,10,07,38,15.90
2014,07,10,07,39,15.90
2014,07,10,07,40,15.90
2014,07,10,07,41,16.00
2014,07,10,07,42,16.00
2014,07,10,07,43,16.10
2014,07,10,07,44,16.10
2014,07,10,07,45,16.20
2014,07,10,07,46,16.20
2014,07,10,07,47,16.20
2014,07,10,07,48,16.30
2014,07,10,07,49,16.30
2014,07,10,07,50,16.40
2014,07,10,07,51,16.40
2014,07,10,07,52,16.40
2014,07,10,07,53,16.40
2014,07,10,07,54,16.40
2014,07,10,07,55,16.40
2014,07,10,07,56,16.40
2014,07,10,07,57,16.40
2014,07,10,07,58,16.40
2014,07,10,07,59,16.50
2014,07,10,08,00,16.50
2014,07,10,08,01,16.50
2014,07,10,08,02,16.60
2014,07,10,08,03,16.60
2014,07,10,08,04,16.60
2014,07,10,08,05,16.70
2014,07,10,08,06,16.70
2014,07,10,08,07,16.80
2014,07,10,08,08,16.70
2014,07,10,08,09,16.70
2014,07,10,08,10,16.80
2014,07,10,08,11,16.80
2014,07,10,08,12,16.80
2014,07,10,08,13,16.80
2014,07,10,08,14,16.70
2014,07,10,08,15,16.70
2014,07,10,08,16,16.70
2014,07,10,08,17,16.80
2014,07,10,08,18,16.80
2014,07,10,08,19,16.90
2014,07,10,08,20,16.90
2014,07,10,08,21,16.90
2014,07,10,08,22,16.90
2014,07,10,08,23,16.90
2014,07,10,08,24,16.90
2014,07,10,08,25,16.90
2014,07,10,08,26,16.90
2014,07,10,08,27,16.90
2014,07,10,08,28,16.90
2014,07,10,08,29,17.00
2014,07,10,08,30,17.00
2014,07,10,08,31,17.00
2014,07,10,08,32,17.10
2014,07,10,08,33,17.10
2014,07,10,08,34,17.10
2014,07,10,08,35,17.10
2014,07,10,08,36,17.20
2014,07,10,08,37,17.20
2014,07,10,08,38,17.20
2014,07,10,08,39,17.30
2014,07,10,08,40,17.30
2014,07,10,08,41,17.30
2014,07,10,08,42,17.20
2014,07,10,08,43,17.20
2014,07,10,08,44,17.10
2014,07,10,08,45,17.10
2014,07,10,08,46,17.10
2014,07,10,08,47,17.10
2014,07,10,08,48,17.10
2014,07,10,08,49,17.10
2014,07,10,08,50,17.10
2014,07,10,08,51,17.20
2014,07,10,08,52,17.20
2014,07,10,08,53,17.20
2014,07,10,08,54,17.10
2014,07,10,08,55,17.10
2014,07,10,08,56,17.00
2014,07,10,08,57,17.00
2014,07,10,08,58,16.90
2014,07,10,08,59,16.90
2014,07,10,09,00,16.80
2014,07,10,09,01,16.80
2014,07,10,09,02,16.70
2014,07,10,09,03,16.60
2014,07,10,09,04,16.50
2014,07,10,09,05,16.40
2014,07,10,09,06,16.40
2014,07,10,09,07,16.40
2014,07,10,09,08,16.40
2014,07,10,09,09,16.50
2014,07,10,09,10,16.50
2014,07,10,09,11,16.50
2014,07,10,09,12,16.50
2014,07,10,09,13,16.50
2014,07,10,09,14,16.50
2014,07,10,09,15,16.50
2014,07,10,09,16,16.50
2014,07,10,09,17,16.60
2014,07,10,09,18,16.60
2014,07,10,09,19,16.70
2014,07,10,09,20,16.70
2014,07,10,09,21,16.70
2014,07,10,09,22,16.70
2014,07,10,09,23,16.70
2014,07,10,09,24,16.70
2014,07,10,09,25,16.80
2014,07,10,09,26,16.80
2014,07,10,09,27,16.80
2014,07,10,09,28,16.80
2014,07,10,09,29,16.80
2014,07,10,09,30,16.80
2014,07,10,09,31,16.80
2014,07,10,09,32,16.80
2014,07,10,09,33,16.80
2014,07,10,09,34,16.80
2014,07,10,09,35,16.90
2014,07,10,09,36,16.90
2014,07,10,09,37,16.90
2014,07,10,09,38,16.90
2014,07,10,09,39,17.00
2014,07,10,09,40,17.00
2014,07,10,09,41,17.10
2014,07,10,09,42,17.20
2014,07,10,09,43,17.30
2014,07,10,09,44,17.30
2014,07,10,09,45,17.30
2014,07,10,09,46,17.30
2014,07,10,09,47,17.30
2014,07,10,09,48,17.40
2014,07,10,09,49,17.50
2014,07,10,09,50,17.50
2014,07,10,09,51,17.60
2014,07,10,09,52,17.60
2014,07,10,09,53,17.60
2014,07,10,09,54,17.50
2014,07,10,09,55,17.50
2014,07,10,09,56,17.50
2014,07,10,09,57,17.40
2014,07,10,09,58,17.50
2014,07,10,09,59,17.50
2014,07,10,10,00,17.60
2014,07,10,10,01,17.70
2014,07,10,10,02,17.70
2014,07,10,10,03,17.80
2014,07,10,10,04,17.80
2014,07,10,10,05,17.80
2014,07,10,10,06,17.80
2014,07,10,10,07,17.90
2014,07,10,10,08,17.90
2014,07,10,10,09,18.00
2014,07,10,10,10,18.00
2014,07,10,10,11,18.00
2014,07,10,10,12,18.10
2014,07,10,10,13,18.10
2014,07,10,10,14,18.10
2014,07,10,10,15,18.10
2014,07,10,10,16,18.20
2014,07,10,10,17,18.20
2014,07,10,10,18,18.30
2014,07,10,10,19,18.30
2014,07,10,10,20,18.30
2014,07,10,10,21,18.30
2014,07,10,10,22,18.30
2014,07,10,10,23,18.30
2014,07,10,10,24,18.20
2014,07,10,10,25,18.10
2014,07,10,10,26,18.10
2014,07,10,10,27,18.00
2014,07,10,10,28,18.00
2014,07,10,10,29,18.00
2014,07,10,10,30,18.00
2014,07,10,10,31,18.00
2014,07,10,10,32,18.00
2014,07,10,10,33,18.10
2014,07,10,10,34,18.10
2014,07,10,10,35,18.10
2014,07,10,10,36,18.10
2014,07,10,10,37,18.10
2014,07,10,10,38,18.10
2014,07,10,10,39,18.20
2014,07,10,10,40,18.20
2014,07,10,10,41,18.20
2014,07,10,10,42,18.20
2014,07,10,10,43,18.10
2014,07,10,10,44,18.20
2014,07,10,10,45,18.20
2014,07,10,10,46,18.30
2014,07,10,10,47,18.40
2014,07,10,10,48,18.50
2014,07,10,10,49,18.60
2014,07,10,10,50,18.60
2014,07,10,10,51,18.60
2014,07,10,10,52,18.50
2014,07,10,10,53,18.50
2014,07,10,10,54,18.40
2014,07,10,10,55,18.40
2014,07,10,10,56,18.40
2014,07,10,10,57,18.30
2014,07,10,10,58,18.30
2014,07,10,10,59,18.30
2014,07,10,11,00,18.30
2014,07,10,11,01,18.30
2014,07,10,11,02,18.30
2014,07,10,11,03,18.30
2014,07,10,11,04,18.30
2014,07,10,11,05,18.30
2014,07,10,11,06,18.30
2014,07,10,11,07,18.30
2014,07,10,11,08,18.40
2014,07,10,11,09,18.40
2014,07,10,11,10,18.40
2014,07,10,11,11,18.50
2014,07,10,11,12,18.50
2014,07,10,11,13,18.60
2014,07,10,11,14,18.60
2014,07,10,11,15,18.60
2014,07,10,11,16,18.60
2014,07,10,11,17,18.60
2014,07,10,11,18,18.60
2014,07,10,11,19,18.60
2014,07,10,11,20,18.70
2014,07,10,11,21,18.70
2014,07,10,11,22,18.60
2014,07,10,11,23,18.60
2014,07,10,11,24,18.50
2014,07,10,11,25,18.50
2014,07,10,11,26,18.50
2014,07,10,11,27,18.60
2014,07,10,11,28,18.70
2014,07,10,11,29,18.80
2014,07,10,11,30,18.80
2014,07,10,11,31,18.80
2014,07,10,11,32,18.80
2014,07,10,11,33,18.80
2014,07,10,11,34,18.80
2014,07,10,11,35,18.80
2014,07,10,11,36,18.90
2014,07,10,11,37,18.90
2014,07,10,11,38,18.90
2014,07,10,11,39,18.90
2014,07,10,11,40,19.00
2014,07,10,11,41,19.10
2014,07,10,11,42,19.10
2014,07,10,11,43,19.10
2014,07,10,11,44,19.10
2014,07,10,11,45,19.10
2014,07,10,11,46,19.00
2014,07,10,11,47,19.00
2014,07,10,11,48,18.90
2014,07,10,11,49,18.90
2014,07,10,11,50,18.90
2014,07,10,11,51,18.90
2014,07,10,11,52,18.90
2014,07,10,11,53,18.90
2014,07,10,11,54,18.90
2014,07,10,11,55,18.90
2014,07,10,11,56,18.90
2014,07,10,11,57,18.90
2014,07,10,11,58,19.00
2014,07,10,11,59,19.10
2014,07,10,12,00,19.20
2014,07,10,12,01,19.20
2014,07,10,12,02,19.30
2014,07,10,12,03,19.40
2014,07,10,12,04,19.40
2014,07,10,12,05,19.50
2014,07,10,12,06,19.50
2014,07,10,12,07,19.50
2014,07,10,12,08,19.60
2014,07,10,12,09,19.60
2014,07,10,12,10,19.60
2014,07,10,12,11,19.70
2014,07,10,12,12,19.70
2014,07,10,12,13,19.80
2014,07,10,12,14,19.80
2014,07,10,12,15,19.80
2014,07,10,12,16,19.80
2014,07,10,12,17,19.70
2014,07,10,12,18,19.60
2014,07,10,12,19,19.50
2014,07,10,12,20,19.40
2014,07,10,12,21,19.40
2014,07,10,12,22,19.30
2014,07,10,12,23,19.40
2014,07,10,12,24,19.50
2014,07,10,12,25,19.60
2014,07,10,12,26,19.70
2014,07,10,12,27,19.70
2014,07,10,12,28,19.80
2014,07,10,12,29,19.80
2014,07,10,12,30,19.70
2014,07,10,12,31,19.70
2014,07,10,12,32,19.70
2014,07,10,12,33,19.70
2014,07,10,12,34,19.70
2014,07,10,12,35,19.70
2014,07,10,12,36,19.70
2014,07,10,12,37,19.70
2014,07,10,12,38,19.70
2014,07,10,12,39,19.70
2014,07,10,12,40,19.70
2014,07,10,12,41,19.70
2014,07,10,12,42,19.70
2014,07,10,12,43,19.80
2014,07,10,12,44,19.80
2014,07,10,12,45,19.80
2014,07,10,12,46,19.80
2014,07,10,12,47,19.90
2014,07,10,12,48,19.90
2014,07,10,12,49,20.10
2014,07,10,12,50,20.20
2014,07,10,12,51,20.30
2014,07,10,12,52,20.40
2014,07,10,12,53,20.40
2014,07,10,12,54,20.40
2014,07,10,12,55,20.40
2014,07,10,12,56,20.40
2014,07,10,12,57,20.30
2014,07,10,12,58,20.30
2014,07,10,12,59,20.40
2014,07,10,13,00,20.40
2014,07,10,13,01,20.30
2014,07,10,13,02,20.30
2014,07,10,13,03,20.30
2014,07,10,13,04,20.20
2014,07,10,13,05,20.20
2014,07,10,13,06,20.20
2014,07,10,13,07,20.20
2014,07,10,13,08,20.30
2014,07,10,13,09,20.30
2014,07,10,13,10,20.30
2014,07,10,13,11,20.30
2014,07,10,13,12,20.40
2014,07,10,13,13,20.40
2014,07,10,13,14,20.40
2014,07,10,13,15,20.40
2014,07,10,13,16,20.40
2014,07,10,13,17,20.40
2014,07,10,13,18,20.30
2014,07,10,13,19,20.30
2014,07,10,13,20,20.30
2014,07,10,13,21,20.30
2014,07,10,13,22,20.30
2014,07,10,13,23,20.40
2014,07,10,13,24,20.50
2014,07,10,13,25,20.60
2014,07,10,13,26,20.70
2014,07,10,13,27,20.80
2014,07,10,13,28,20.80
2014,07,10,13,29,20.70
2014,07,10,13,30,20.70
2014,07,10,13,31,20.60
2014,07,10,13,32,20.50
2014,07,10,13,33,20.30
2014,07,10,13,34,20.30
2014,07,10,13,35,20.30
2014,07,10,13,36,20.30
2014,07,10,13,37,20.30
2014,07,10,13,38,20.40
2014,07,10,13,39,20.40
2014,07,10,13,40,20.50
2014,07,10,13,41,20.60
2014,07,10,13,42,20.70
2014,07,10,13,43,20.70
2014,07,10,13,44,20.70
2014,07,10,13,45,20.70
2014,07,10,13,46,20.70
2014,07,10,13,47,20.70
2014,07,10,13,48,20.70
2014,07,10,13,49,20.80
2014,07,10,13,50,20.90
2014,07,10,13,51,20.80
2014,07,10,13,52,20.60
2014,07,10,13,53,20.50
2014,07,10,13,54,20.40
2014,07,10,13,55,20.30
2014,07,10,13,56,20.30
2014,07,10,13,57,20.30
2014,07,10,13,58,20.40
2014,07,10,13,59,20.60
2014,07,10,14,00,20.70
2014,07,10,14,01,20.70
2014,07,10,14,02,20.70
2014,07,10,14,03,20.70
2014,07,10,14,04,20.70
2014,07,10,14,05,20.70
2014,07,10,14,06,20.70
2014,07,10,14,07,20.70
2014,07,10,14,08,20.70
2014,07,10,14,09,20.70
2014,07,10,14,10,20.80
2014,07,10,14,11,20.80
2014,07,10,14,12,20.90
2014,07,10,14,13,20.90
2014,07,10,14,14,20.90
2014,07,10,14,15,20.90
2014,07,10,14,16,20.60
2014,07,10,14,17,20.40
2014,07,10,14,18,20.20
2014,07,10,14,19,20.20
2014,07,10,14,20,20.20
2014,07,10,14,21,20.30
2014,07,10,14,22,20.40
2014,07,10,14,23,20.50
2014,07,10,14,24,20.60
2014,07,10,14,25,20.70
2014,07,10,14,26,20.70
2014,07,10,14,27,20.70
2014,07,10,14,28,20.80
2014,07,10,14,29,20.80
2014,07,10,14,30,20.90
2014,07,10,14,31,20.90
2014,07,10,14,32,20.90
2014,07,10,14,33,20.90
2014,07,10,14,34,20.90
2014,07,10,14,35,20.90
2014,07,10,14,36,20.90
2014,07,10,14,37,20.90
2014,07,10,14,38,20.90
2014,07,10,14,39,21.00
2014,07,10,14,40,21.10
2014,07,10,14,41,21.20
2014,07,10,14,42,21.40
2014,07,10,14,43,21.50
2014,07,10,14,44,21.60
2014,07,10,14,45,21.70
2014,07,10,14,46,21.80
2014,07,10,14,47,21.90
2014,07,10,14,48,22.00
2014,07,10,14,49,22.10
2014,07,10,14,50,22.20
2014,07,10,14,51,22.20
2014,07,10,14,52,22.10
2014,07,10,14,53,22.10
2014,07,10,14,54,22.10
2014,07,10,14,55,22.10
2014,07,10,14,56,22.10
2014,07,10,14,57,22.20
2014,07,10,14,58,22.20
2014,07,10,14,59,22.30
2014,07,10,15,00,22.40
2014,07,10,15,01,22.40
2014,07,10,15,02,22.50
2014,07,10,15,03,22.60
2014,07,10,15,04,22.70
2014,07,10,15,05,22.80
2014,07,10,15,06,22.90
2014,07,10,15,07,23.00
2014,07,10,15,08,23.10
2014,07,10,15,09,23.10
2014,07,10,15,10,23.20
2014,07,10,15,11,23.20
2014,07,10,15,12,23.20
2014,07,10,15,13,23.20
2014,07,10,15,14,23.30
2014,07,10,15,15,23.30
2014,07,10,15,16,23.30
2014,07,10,15,17,23.30
2014,07,10,15,18,23.30
2014,07,10,15,19,23.30
2014,07,10,15,20,23.30
2014,07,10,15,21,23.30
2014,07,10,15,22,23.30
2014,07,10,15,23,23.40
2014,07,10,15,24,23.40
2014,07,10,15,25,23.40
2014,07,10,15,26,23.50
2014,07,10,15,27,23.50
2014,07,10,15,28,23.60
2014,07,10,15,29,23.70
2014,07,10,15,30,23.80
2014,07,10,15,31,23.80
2014,07,10,15,32,23.80
2014,07,10,15,33,23.80
2014,07,10,15,34,23.80
2014,07,10,15,35,23.80
2014,07,10,15,36,23.70
2014,07,10,15,37,23.70
2014,07,10,15,38,23.60
2014,07,10,15,39,23.60
2014,07,10,15,40,23.60
2014,07,10,15,41,23.60
2014,07,10,15,42,23.50
2014,07,10,15,43,23.40
2014,07,10,15,44,23.40
2014,07,10,15,45,23.30
2014,07,10,15,46,23.20
2014,07,10,15,47,23.20
2014,07,10,15,48,23.20
2014,07,10,15,49,23.10
2014,07,10,15,50,23.10
2014,07,10,15,51,23.10
2014,07,10,15,52,23.10
2014,07,10,15,53,23.10
2014,07,10,15,54,23.00
2014,07,10,15,55,22.90
2014,07,10,15,56,22.90
2014,07,10,15,57,22.80
2014,07,10,15,58,22.70
2014,07,10,15,59,22.70
2014,07,10,16,00,22.70
2014,07,10,16,01,22.70
2014,07,10,16,02,22.70
2014,07,10,16,03,22.70
2014,07,10,16,04,22.80
2014,07,10,16,05,22.80
2014,07,10,16,06,22.80
2014,07,10,16,07,22.90
2014,07,10,16,08,22.90
2014,07,10,16,09,22.90
2014,07,10,16,10,22.90
2014,07,10,16,11,22.90
2014,07,10,16,12,22.90
2014,07,10,16,13,22.90
2014,07,10,16,14,22.90
2014,07,10,16,15,22.90
2014,07,10,16,16,22.90
2014,07,10,16,17,22.90
2014,07,10,16,18,22.90
2014,07,10,16,19,22.80
2014,07,10,16,20,22.80
2014,07,10,16,21,22.90
2014,07,10,16,22,22.90
2014,07,10,16,23,22.90
2014,07,10,16,24,22.90
2014,07,10,16,25,23.00
2014,07,10,16,26,23.10
2014,07,10,16,27,23.10
2014,07,10,16,28,23.20
2014,07,10,16,29,23.20
2014,07,10,16,30,23.30
2014,07,10,16,31,23.30
2014,07,10,16,32,23.30
2014,07,10,16,33,23.40
2014,07,10,16,34,23.40
2014,07,10,16,35,23.50
2014,07,10,16,36,23.50
2014,07,10,16,37,23.60
2014,07,10,16,38,23.60
2014,07,10,16,39,23.70
2014,07,10,16,40,23.70
2014,07,10,16,41,23.80
2014,07,10,16,42,23.90
2014,07,10,16,43,24.00
2014,07,10,16,44,24.00
2014,07,10,16,45,24.10
2014,07,10,16,46,24.10
2014,07,10,16,47,24.10
2014,07,10,16,48,24.20
2014,07,10,16,49,24.30
2014,07,10,16,50,24.30
2014,07,10,16,51,24.30
2014,07,10,16,52,24.40
2014,07,10,16,53,24.50
2014,07,10,16,54,24.50
2014,07,10,16,55,24.60
2014,07,10,16,56,24.60
2014,07,10,16,57,24.60
2014,07,10,16,58,24.60
2014,07,10,16,59,24.60
2014,07,10,17,00,24.50
2014,07,10,17,01,24.60
2014,07,10,17,02,24.60
2014,07,10,17,03,24.70
2014,07,10,17,04,24.70
2014,07,10,17,05,24.80
2014,07,10,17,06,24.80
2014,07,10,17,07,24.90
2014,07,10,17,08,24.90
2014,07,10,17,09,24.80
2014,07,10,17,10,24.70
2014,07,10,17,11,24.70
2014,07,10,17,12,24.70
2014,07,10,17,13,24.70
2014,07,10,17,14,24.70
2014,07,10,17,15,24.70
2014,07,10,17,16,24.60
2014,07,10,17,17,24.60
2014,07,10,17,18,24.50
2014,07,10,17,19,24.50